McAlester, OK

3:07 PM CST on February 24, 2017 (GMT -0600)
McAlester Regional

Weather History for KMLC - February, 2013

Change the Weather History Date:

Tuesday, February 12, 2013

  Actual Average Record
Temperature  
Mean Temperature 40 °F -  
Max Temperature 43 °F 53 °F 83 °F (1962)
Min Temperature 36 °F 31 °F 11 °F (1963)
Degree Days  
Heating Degree Days 25    
Moisture  
Dew Point 36 °F    
Average Humidity 86    
Maximum Humidity 93    
Minimum Humidity 65    
Precipitation  
Precipitation 0.70 in - - ()
Sea Level Pressure  
Sea Level Pressure 29.98 in    
Wind  
Wind Speed 6 mph (NNE)    
Max Wind Speed 13 mph    
Max Gust Speed 20 mph    
Visibility 6 miles    
Events Rain    
Averages and records for this station are not official NWS values.
T = Trace of Precipitation, MM = Missing Value Source: NWS Daily Summary

Daily Weather History Graph

Daily Weather History Graph

Search for Another Location

Airport or City:

Trip Planner

Search our weather history database for the weather conditions in past years. The results will help you decide how hot, cold, wet, or windy it might be!

Date:

Astronomy

Feb. 12, 2013 Rise Set
Actual Time 7:11 AM CST 6:03 PM CST
Civil Twilight 6:45 AM CST 6:29 PM CST
Nautical Twilight 6:16 AM CST 6:59 PM CST
Astronomical Twilight 5:46 AM CST 7:28 PM CST
Moon 8:17 AM CST (2/12) 8:55 PM CST (2/12)
Length of Visible Light 11h 43m
Length of Day
10h 51m
Waxing Crescent, 7% of the Moon is Illuminated
Feb 12
Waxing Crescent
Feb 17
First Quarter
Feb 25
Full
Mar 4
Last Quarter
Mar 11
New

Hourly Weather History & Observations

Time (CST) Temp. Windchill Dew Point Humidity Pressure Visibility Wind Dir Wind Speed Gust Speed Precip Events Conditions
12:53 AM 39.9 °F 37.8 °F 30.0 °F 68% 30.09 in 10.0 mi East 3.5 mph - N/A   Scattered Clouds
1:53 AM 39.9 °F - 28.9 °F 65% 30.06 in 10.0 mi Calm Calm - N/A   Partly Cloudy
2:53 AM 39.9 °F - 30.9 °F 70% 30.04 in 10.0 mi Calm Calm - N/A   Clear
3:53 AM 39.9 °F - 32.0 °F 73% 30.05 in 10.0 mi Calm Calm - N/A   Mostly Cloudy
4:53 AM 42.1 °F - 32.0 °F 67% 30.04 in 10.0 mi Calm Calm - N/A   Overcast
5:53 AM 42.1 °F 40.2 °F 34.0 °F 73% 30.06 in 10.0 mi North 3.5 mph - N/A   Overcast
6:53 AM 43.0 °F 38.8 °F 33.1 °F 68% 30.01 in 10.0 mi NE 6.9 mph - N/A   Overcast
7:53 AM 43.0 °F 39.5 °F 33.1 °F 68% 30.04 in 10.0 mi North 5.8 mph - 0.00 in Rain Light Rain
8:53 AM 41.0 °F 36.4 °F 36.0 °F 82% 30.02 in 6.0 mi East 6.9 mph - 0.13 in Rain Rain
9:53 AM 39.9 °F 32.9 °F 37.0 °F 89% 29.99 in 4.0 mi NE 11.5 mph 17.3 mph 0.22 in Rain Light Rain
10:53 AM 41.0 °F 35.2 °F 37.9 °F 89% 29.99 in 8.0 mi NE 9.2 mph 19.6 mph 0.08 in Rain Light Rain
11:49 AM 41.0 °F 35.2 °F 37.4 °F 87% 30.00 in 2.5 mi NNE 9.2 mph - 0.07 in Rain Rain
11:53 AM 41.0 °F 34.7 °F 37.9 °F 89% 30.01 in 2.5 mi NNE 10.4 mph - 0.08 in Rain Rain
12:03 PM 41.0 °F 34.3 °F 37.4 °F 87% 30.00 in 4.0 mi NE 11.5 mph 17.3 mph 0.02 in Rain Light Rain
12:34 PM 39.2 °F 33.6 °F 37.4 °F 93% 30.00 in 3.0 mi NE 8.1 mph 16.1 mph 0.05 in Rain Light Rain
12:53 PM 41.0 °F 36.4 °F 37.9 °F 89% 30.00 in 2.5 mi NE 6.9 mph - 0.07 in Rain Light Rain
1:00 PM 41.0 °F 36.4 °F 37.4 °F 87% 29.99 in 3.0 mi NE 6.9 mph - 0.00 in Rain Light Rain
1:08 PM 39.2 °F 34.2 °F 37.4 °F 93% 29.99 in 3.0 mi NE 6.9 mph - 0.00 in Rain Light Rain
1:10 PM 39.2 °F 34.2 °F 37.4 °F 93% 29.98 in 3.0 mi NE 6.9 mph - 0.00 in Rain Light Rain
1:23 PM 39.2 °F 33.6 °F 37.4 °F 93% 29.97 in 2.5 mi ENE 8.1 mph 16.1 mph 0.01 in Rain Light Rain
1:34 PM 41.0 °F 35.8 °F 37.4 °F 87% 29.96 in 4.0 mi NE 8.1 mph 19.6 mph 0.01 in Rain Light Rain
1:53 PM 41.0 °F 34.3 °F 37.9 °F 89% 29.95 in 7.0 mi NE 11.5 mph 17.3 mph 0.01 in   Overcast
2:45 PM 41.0 °F 35.8 °F 37.4 °F 87% 29.92 in 9.0 mi NE 8.1 mph - N/A   Overcast
2:53 PM 41.0 °F 37.1 °F 37.9 °F 89% 29.92 in 10.0 mi Variable 5.8 mph - N/A   Overcast
3:49 PM 42.8 °F 38.6 °F 39.2 °F 87% 29.91 in 4.0 mi NE 6.9 mph - N/A   Overcast
3:53 PM 41.0 °F 36.4 °F 39.0 °F 93% 29.91 in 4.0 mi NE 6.9 mph - N/A   Overcast
4:09 PM 41.0 °F 36.4 °F 39.2 °F 93% 29.91 in 4.0 mi NE 6.9 mph - N/A   Overcast
4:25 PM 41.0 °F 36.4 °F 37.4 °F 87% 29.91 in 2.5 mi NE 6.9 mph - N/A   Overcast
4:49 PM 39.2 °F 34.2 °F 37.4 °F 93% 29.91 in 1.8 mi NE 6.9 mph - 0.01 in Rain Light Rain
4:53 PM 39.9 °F 34.5 °F 37.9 °F 93% 29.92 in 2.0 mi NE 8.1 mph - 0.01 in Rain Light Rain
5:53 PM 39.9 °F 34.5 °F 37.9 °F 93% 29.93 in 2.0 mi NNE 8.1 mph - 0.01 in   Overcast
6:17 PM 39.2 °F 34.2 °F 37.4 °F 93% 29.94 in 4.0 mi NNE 6.9 mph - 0.01 in   Overcast
6:53 PM 39.9 °F 35.1 °F 37.9 °F 93% 29.95 in 3.0 mi NNE 6.9 mph - 0.02 in Rain Light Rain
7:53 PM 39.9 °F 33.9 °F 37.9 °F 93% 29.97 in 10.0 mi North 9.2 mph - 0.03 in Rain Light Rain
8:43 PM 39.2 °F 32.5 °F 35.6 °F 87% 29.98 in 6.0 mi North 10.4 mph - 0.02 in Rain Light Rain
8:53 PM 39.0 °F 32.3 °F 36.0 °F 89% 29.99 in 6.0 mi North 10.4 mph - 0.03 in Rain Light Rain
9:03 PM 39.2 °F 32.5 °F 35.6 °F 87% 29.99 in 8.0 mi North 10.4 mph - 0.00 in Rain Light Rain
9:53 PM 37.0 °F 29.3 °F 35.1 °F 93% 30.01 in 7.0 mi North 11.5 mph - 0.00 in Rain Light Rain
10:53 PM 37.0 °F 28.9 °F 34.0 °F 89% 30.01 in 10.0 mi North 12.7 mph - 0.01 in   Overcast
11:53 PM 36.0 °F 29.0 °F 34.0 °F 93% 30.02 in 10.0 mi NNW 9.2 mph - N/A   Overcast